LX0APE-4 Weather Reports


time (UTC)temp
C
wind
direction
speed
KPH
gust
KPH
rain 1hr
cm
rain 24hr
cm
rain mn
cm
humidity
%
barometer
mb
20260506122650 14 22 0.0 0.0 0.00 0.46 0.00 73 5003.8
20260506122150 14 315 0.0 0.0 0.00 0.46 0.00 73 5003.8
20260506121650 14 67 0.0 0.0 0.00 0.46 0.00 74 5003.8
20260506121150 14 315 0.0 0.0 0.00 0.46 0.00 74 5003.7
20260506120653 14 22 0.0 0.0 0.00 0.46 0.00 75 5003.5
20260506120650 14 22 0.0 0.0 0.00 0.46 0.00 75 5003.5
20260506120150 14 292 0.0 0.0 0.00 0.46 0.00 76 5003.6
20260506115650 13 315 0.0 0.0 0.00 0.51 0.00 77 5003.6
20260506115150 13 315 0.0 0.0 0.00 0.51 0.00 78 5003.6
20260506114650 13 315 0.0 0.0 0.00 0.51 0.00 78 5003.7
20260506114150 12 292 0.0 0.0 0.00 0.51 0.00 79 5003.8
20260506113650 12 315 0.0 0.0 0.00 0.51 0.00 79 5003.7
20260506113150 13 22 0.0 0.0 0.00 0.51 0.00 79 5003.7
20260506112650 13 292 0.0 0.0 0.00 0.51 0.00 79 5003.7
20260506112150 13 337 0.0 0.0 0.00 0.51 0.00 79 5003.5
20260506111650 13 315 0.0 0.0 0.00 0.51 0.00 79 5003.4
20260506111150 13 315 0.0 0.0 0.00 0.51 0.00 79 5003.4
20260506110650 13 22 0.0 0.0 0.00 0.51 0.00 78 5003.3
20260506110150 13 0 0.0 0.0 0.00 0.51 0.00 79 5003.3
20260506105650 13 337 0.0 0.0 0.00 0.56 0.00 79 5003.3
20260506105150 14 337 0.0 0.0 0.00 0.56 0.00 78 5003.3
20260506104650 14 337 0.0 0.0 0.00 0.56 0.00 77 5003.4
20260506104150 15 315 0.0 0.0 0.00 0.56 0.00 78 5003.4
20260506103650 15 270 0.0 0.0 0.00 0.56 0.00 80 5003.2
20260506103150 14 292 0.0 0.0 0.00 0.56 0.00 79 5003.0
20260506102650 14 315 0.0 0.0 0.00 0.56 0.00 79 5003.0
20260506102150 14 315 0.0 0.0 0.00 0.56 0.00 79 5003.1
20260506101650 15 315 0.0 0.0 0.00 0.56 0.00 79 5003.0
20260506101150 15 315 0.0 0.0 0.00 0.56 0.00 80 5003.0
20260506100650 15 337 0.0 0.0 0.05 0.56 0.00 81 5002.8
20260506100150 14 315 0.0 0.0 0.05 0.56 0.00 83 5003.0
20260506095650 13 292 0.0 0.0 0.05 0.56 0.00 84 5002.9
20260506095150 13 315 0.0 0.0 0.05 0.56 0.00 86 5002.9
20260506094650 13 315 0.0 0.0 0.05 0.56 0.00 88 5002.8
20260506094152 12 292 0.0 0.0 0.05 0.56 0.00 88 5002.8
20260506093650 12 315 0.0 0.0 0.05 0.56 0.00 89 5002.9
20260506093150 12 315 0.0 0.0 0.05 0.56 0.00 89 5002.8
20260506092650 12 315 0.0 0.0 0.05 0.56 0.00 88 5002.8
20260506092150 12 315 0.0 0.0 0.05 0.56 0.00 87 5002.9
20260506091650 12 292 0.0 0.0 0.05 0.56 0.00 86 5002.9
20260506091150 12 292 0.0 0.0 0.00 0.51 0.00 85 5002.9
20260506090650 12 292 0.0 0.0 0.00 0.51 0.00 85 5002.7
20260506090150 13 292 0.0 0.0 0.00 0.51 0.00 83 5002.8
20260506085650 14 292 0.0 0.0 0.00 0.51 0.00 83 5002.7
20260506085150 14 180 0.0 0.0 0.00 0.51 0.00 84 5002.6
20260506084650 14 157 0.0 0.0 0.00 0.51 0.00 84 5002.6
20260506084150 14 180 0.0 0.0 0.00 0.51 0.00 86 5002.5
20260506083650 13 135 0.0 0.0 0.00 0.51 0.00 86 5002.5
20260506083150 13 180 0.0 0.0 0.00 0.51 0.00 85 5002.6
20260506082650 13 180 0.0 0.0 0.00 0.51 0.00 86 5002.6
20260506082150 13 180 0.0 0.0 0.00 0.51 0.00 85 5002.6
20260506081650 13 202 0.0 0.0 0.00 0.51 0.00 86 5002.6
20260506081150 13 157 0.0 0.0 0.00 0.51 0.00 87 5002.4
20260506080650 13 157 0.0 0.0 0.00 0.51 0.00 87 5002.3
20260506080150 13 157 0.0 0.0 0.00 0.51 0.00 88 5002.4
20260506073150 11 180 0.0 0.0 0.00 0.51 0.00 93 5002.5
20260506072650 11 202 0.0 0.0 0.00 0.51 0.00 93 5002.6
20260506072157 11 180 0.0 0.0 0.00 0.51 0.00 93 5002.6
20260506072150 11 180 0.0 0.0 0.00 0.51 0.00 93 5002.6
20260506071650 11 180 0.0 0.0 0.00 0.51 0.00 93 5002.5
20260506071150 11 202 0.0 0.0 0.00 0.51 0.00 93 5002.6
20260506070650 11 180 0.0 0.0 0.00 0.51 0.00 93 5002.6
20260506070150 11 202 0.0 0.0 0.00 0.51 0.00 93 5002.5
20260506062150 10 157 0.0 0.0 0.05 0.51 0.00 92 5002.3
20260506061650 10 180 0.0 0.0 0.05 0.51 0.00 92 5002.2
20260506061150 10 135 0.0 0.0 0.05 0.51 0.00 92 5002.4
20260506060650 10 180 0.0 0.0 0.05 0.51 0.00 92 5002.4
20260506060150 10 157 0.0 0.0 0.05 0.51 0.00 92 5002.4
20260506051150 11 180 0.0 0.0 0.00 0.46 0.00 92 5002.1
20260506050650 11 180 0.0 0.0 0.00 0.46 0.00 92 5002.1
20260506050150 11 157 0.0 0.0 0.00 0.46 0.00 92 5002.1
20260506044650 10 180 0.0 0.0 0.00 0.46 0.00 92 5002.1
20260506044151 10 157 0.0 0.0 0.00 0.46 0.00 93 5002.1
20260506043650 10 180 0.0 0.0 0.00 0.46 0.00 93 5002.1
20260506043150 10 180 0.0 0.0 0.00 0.46 0.00 93 5002.2
20260506042650 10 157 0.0 0.0 0.00 0.46 0.00 93 5002.1
20260506042150 10 180 0.0 0.0 0.00 0.46 0.00 93 5002.2
20260506041651 10 157 0.0 0.0 0.00 0.46 0.00 93 5002.1
20260506041151 11 180 0.0 0.0 0.00 0.46 0.00 93 5002.1
20260506040650 10 180 0.0 0.0 0.00 0.46 0.00 93 5002.2
20260506040151 11 180 0.0 0.0 0.00 0.46 0.00 93 5002.1
20260506035650 11 180 0.0 0.0 0.00 0.46 0.00 93 5002.3
20260506035151 11 157 0.0 0.0 0.00 0.46 0.00 93 5002.3
20260506034650 10 180 0.0 0.0 0.00 0.46 0.00 93 5002.5
20260506034150 11 180 0.0 0.0 0.00 0.46 0.00 93 5002.6
20260506033651 11 180 0.0 0.0 0.00 0.46 0.00 93 5002.6
20260506033151 11 202 0.0 0.0 0.00 0.46 0.00 93 5002.7
20260506032651 11 180 0.0 0.0 0.00 0.46 0.00 93 5002.7
20260506032151 11 180 0.0 0.0 0.00 0.46 0.00 93 5002.8
20260506031651 11 180 0.0 0.0 0.00 0.46 0.00 93 5002.8
20260506031151 11 180 0.0 0.0 0.00 0.46 0.00 93 5002.8
20260506030651 11 202 0.0 0.0 0.00 0.46 0.00 94 5002.7
20260506030151 11 180 0.0 0.0 0.00 0.46 0.00 94 5002.7
20260506025651 11 180 0.0 0.0 0.00 0.46 0.00 94 5002.7
20260506025151 11 202 0.0 0.0 0.00 0.46 0.00 94 5002.8
20260506024651 11 157 0.0 0.0 0.00 0.46 0.00 94 5002.7
20260506024151 11 180 0.0 0.0 0.00 0.46 0.00 94 5002.7
20260506023651 11 180 0.0 0.0 0.00 0.46 0.00 94 5002.6
20260506023151 11 180 0.0 0.0 0.00 0.46 0.00 94 5002.6
20260506022651 11 180 0.0 0.0 0.00 0.46 0.00 94 5002.7
20260506022151 11 180 0.0 0.0 0.00 0.46 0.00 94 5002.6
20260506021651 11 157 0.0 0.0 0.00 0.46 0.00 94 5002.6
20260506021151 11 180 0.0 0.0 0.00 0.46 0.00 94 5002.6
20260506020651 11 180 0.0 0.0 0.00 0.46 0.00 94 5002.5
20260506020151 11 180 0.0 0.0 0.00 0.46 0.00 93 5002.6
20260506015651 11 180 0.0 0.0 0.00 0.46 0.00 93 5002.7
20260506015151 10 157 0.0 0.0 0.00 0.46 0.00 93 5002.8
20260506014651 10 180 0.0 0.0 0.00 0.46 0.00 93 5002.7
20260506014151 10 180 0.0 0.0 0.00 0.46 0.00 93 5002.7
20260506013651 10 180 0.0 0.0 0.00 0.46 0.00 93 5002.7
20260506013151 10 180 0.0 0.0 0.00 0.46 0.00 93 5002.8
20260506012651 10 157 0.0 0.0 0.00 0.46 0.00 93 5002.8
20260506012151 10 180 0.0 0.0 0.00 0.46 0.00 93 5002.8
20260506011651 10 180 0.0 0.0 0.00 0.46 0.00 93 5002.8
20260506011151 10 180 0.0 0.0 0.00 0.46 0.00 93 5002.8
20260506010651 10 202 0.0 0.0 0.00 0.46 0.00 93 5002.9
20260506010151 10 202 0.0 0.0 0.00 0.46 0.00 93 5003.1
20260506005651 10 180 0.0 0.0 0.00 0.46 0.00 93 5003.1
20260506005151 10 180 0.0 0.0 0.00 0.46 0.00 92 5003.0
20260506004651 10 180 0.0 0.0 0.00 0.46 0.00 92 5003.1
20260506004151 10 180 0.0 0.0 0.00 0.46 0.00 92 5003.2
20260506003651 11 180 0.0 0.0 0.00 0.46 0.00 92 5003.2
20260506003151 11 180 0.0 0.0 0.00 0.46 0.00 92 5003.2
20260506002651 11 180 0.0 0.0 0.00 0.46 0.00 92 5003.2
20260506002151 11 180 0.0 0.0 0.00 0.46 0.00 92 5003.2
20260506001651 11 180 0.0 0.0 0.00 0.46 0.00 92 5003.5
20260506001151 11 180 0.0 0.0 0.00 0.46 0.00 92 5003.6
20260506000651 11 180 0.0 0.0 0.00 0.46 0.00 92 5003.7
20260506000151 11 157 0.0 0.0 0.00 0.46 0.00 92 5003.6
20260505235651 11 202 0.0 0.0 0.00 0.46 0.00 92 5003.5
20260505235151 11 180 0.0 0.0 0.00 0.46 0.00 92 5003.7
20260505234651 11 180 0.0 0.0 0.00 0.46 0.00 92 5003.7
20260505234151 11 180 0.0 0.0 0.00 0.46 0.00 92 5003.7
20260505233651 11 180 0.0 0.0 0.00 0.46 0.00 92 5003.6
20260505233151 11 180 0.0 0.0 0.00 0.46 0.00 92 5003.7
20260505232651 11 180 0.0 0.0 0.00 0.46 0.00 92 5003.7
20260505232151 11 180 0.0 0.0 0.00 0.46 0.00 92 5003.7
20260505231651 11 180 0.0 0.0 0.00 0.46 0.00 92 5003.7
20260505231151 11 180 0.0 0.0 0.00 0.46 0.00 92 5003.6
20260505230651 11 157 0.0 0.0 0.00 0.46 0.00 92 5003.5
20260505230151 11 157 0.0 0.0 0.00 0.46 0.00 92 5003.6
20260505225651 11 157 0.0 0.0 0.00 0.46 0.00 92 5003.5
20260505225151 12 180 0.0 0.0 0.00 0.46 0.00 92 5003.6
20260505224651 12 180 0.0 0.0 0.00 0.46 0.00 92 5003.5
20260505224151 12 157 0.0 0.0 0.00 0.46 0.00 92 5003.6
20260505223651 11 180 0.0 0.0 0.00 0.46 0.00 92 5003.8
20260505223151 11 180 0.0 0.0 0.00 0.46 0.00 92 5003.9
20260505222651 11 157 0.0 0.0 0.00 0.46 0.00 92 5003.8
20260505222151 11 157 0.0 0.0 0.00 0.46 0.00 92 5003.8
20260505221651 11 180 0.0 0.0 0.00 0.46 0.00 92 5003.9
20260505221151 11 157 0.0 0.0 0.00 0.46 0.00 92 5003.9
20260505220651 12 180 0.0 0.0 0.00 0.46 0.00 92 5004.0
20260505220151 12 157 0.0 0.0 0.00 0.46 0.00 92 5003.9
20260505215651 12 180 0.0 0.0 0.00 0.46 0.00 92 5003.9
20260505215151 12 180 0.0 0.0 0.00 0.46 0.00 92 5003.9
20260505214651 12 180 0.0 0.0 0.00 0.46 0.00 92 5003.9
20260505214151 12 180 0.0 0.0 0.00 0.46 0.00 92 5003.9
20260505213651 12 180 0.0 0.0 0.00 0.46 0.00 92 5003.9
20260505213151 12 180 0.0 0.0 0.00 0.46 0.00 92 5003.9
20260505212651 12 180 0.0 0.0 0.00 0.46 0.00 92 5003.9
20260505212151 12 202 0.0 0.0 0.00 0.46 0.00 92 5004.0
20260505211651 12 180 0.0 0.0 0.00 0.46 0.00 92 5003.9
20260505211151 12 157 0.0 0.0 0.00 0.46 0.00 92 5004.0
20260505210651 12 180 0.0 0.0 0.00 0.46 0.00 92 5004.0
20260505210151 12 180 0.0 0.0 0.00 0.46 0.00 92 5004.3
20260505205651 12 180 0.0 0.0 0.00 0.46 0.00 92 5004.2
20260505205151 12 180 0.0 0.0 0.00 0.46 0.00 92 5004.2
20260505204651 12 180 0.0 0.0 0.00 0.46 0.00 92 5004.1
20260505204151 12 225 0.0 0.0 0.05 0.46 0.00 92 5004.1
20260505203651 12 180 0.0 0.0 0.05 0.46 0.00 92 5004.1
20260505203151 12 202 0.0 0.0 0.05 0.46 0.00 92 5004.1
20260505202651 12 202 0.0 0.0 0.05 0.46 0.00 92 5004.0
20260505202151 12 180 0.0 0.0 0.05 0.46 0.00 91 5003.9
20260505201651 12 180 0.0 0.0 0.10 0.46 0.00 91 5003.9
20260505201151 12 202 0.0 0.0 0.10 0.46 0.00 91 5003.9
20260505200724 12 202 0.0 0.0 0.10 0.46 0.00 91 5003.8
20260505200651 12 202 0.0 0.0 0.10 0.46 0.00 91 5003.8
20260505200151 12 202 0.0 0.0 0.10 0.46 0.00 91 5003.8
20260505195651 12 135 0.0 0.0 0.10 0.46 0.00 91 5003.7
20260505195151 12 292 0.0 0.0 0.10 0.46 0.00 91 5003.7
20260505194651 12 157 0.0 0.0 0.15 0.46 0.00 91 5003.7
20260505194151 12 135 0.0 0.0 0.10 0.41 0.00 90 5003.6
20260505193651 12 135 0.0 0.0 0.10 0.41 0.00 90 5003.6
20260505193151 12 135 0.0 0.0 0.10 0.41 0.00 90 5003.5
20260505192651 12 135 0.0 0.0 0.15 0.41 0.00 90 5003.4
20260505192151 12 112 0.0 0.0 0.10 0.36 0.00 90 5003.6
20260505191651 12 112 0.0 0.0 0.15 0.36 0.00 90 5003.7
20260505191152 12 112 0.0 0.0 0.15 0.36 0.00 89 5003.7
20260505190651 12 135 0.0 0.0 0.15 0.36 0.00 89 5003.7
20260505190151 12 112 0.0 0.0 0.15 0.36 0.00 89 5003.6
20260505185651 12 67 0.0 0.0 0.15 0.36 0.00 89 5003.5
20260505185151 12 67 0.0 0.0 0.15 0.36 0.00 88 5003.5
20260505184651 12 67 0.0 0.0 0.10 0.30 0.00 88 5003.6
20260505184151 13 67 0.0 0.0 0.10 0.30 0.00 88 5003.7
20260505183651 13 90 0.0 0.0 0.10 0.30 0.00 87 5003.7
20260505183151 13 90 0.0 0.0 0.10 0.30 0.00 87 5003.6
20260505182651 13 135 0.0 0.0 0.05 0.25 0.00 86 5003.6
20260505182151 13 135 0.0 0.0 0.00 0.20 0.00 86 5003.6
20260505181651 13 135 0.0 0.0 0.00 0.20 0.00 86 5003.6
20260505181151 13 135 0.0 0.0 0.00 0.20 0.00 85 5003.8
20260505180651 13 135 0.0 0.0 0.00 0.20 0.00 85 5003.8
20260505180151 13 135 0.0 0.0 0.00 0.20 0.00 85 5003.8
20260505175652 13 135 0.0 0.0 0.00 0.20 0.00 84 5003.6
20260505175151 13 135 0.0 0.0 0.00 0.20 0.00 84 5003.6
20260505174652 13 135 0.0 0.0 0.00 0.20 0.00 83 5003.9
20260505174151 14 157 0.0 0.0 0.00 0.20 0.00 83 5004.0
20260505173652 14 157 0.0 0.0 0.00 0.20 0.00 83 5003.9
20260505173152 14 157 0.0 0.0 0.00 0.20 0.00 82 5004.1
20260505172652 15 157 0.0 0.0 0.00 0.20 0.00 82 5003.9
20260505172152 15 157 0.0 0.0 0.00 0.20 0.00 82 5004.0
20260505171652 15 157 0.0 0.0 0.00 0.20 0.00 82 5003.9
20260505171152 15 157 0.0 0.0 0.00 0.20 0.00 82 5004.0
20260505170652 15 157 0.0 0.0 0.00 0.20 0.00 81 5004.1
20260505170152 15 157 0.0 0.0 0.00 0.20 0.00 81 5004.1
20260505165652 15 157 0.0 0.0 0.00 0.20 0.00 80 5004.1
20260505165152 15 157 0.0 0.0 0.00 0.20 0.00 81 5004.0
20260505164652 15 157 0.0 0.0 0.00 0.20 0.00 81 5003.9
20260505164152 15 157 0.0 0.0 0.00 0.20 0.00 81 5003.9
20260505163652 15 157 0.0 0.0 0.00 0.20 0.00 82 5004.0
20260505163152 15 157 0.0 0.0 0.00 0.20 0.00 82 5004.0
20260505162652 15 157 0.0 0.0 0.00 0.20 0.00 82 5004.0
20260505162152 15 157 0.0 0.0 0.00 0.20 0.00 82 5003.9
20260505161652 15 157 0.0 0.0 0.00 0.20 0.00 83 5003.9
20260505161152 15 157 0.0 0.0 0.00 0.20 0.00 84 5004.0
20260505160652 15 157 0.0 0.0 0.00 0.20 0.00 85 5004.0
20260505160152 15 157 0.0 0.0 0.00 0.20 0.00 84 5004.1
20260505153152 14 157 0.0 0.0 0.05 0.20 0.00 85 5004.4
20260505152652 14 157 0.0 0.0 0.05 0.20 0.00 85 5004.3
20260505152152 14 180 0.0 0.0 0.05 0.20 0.00 85 5004.4
20260505151652 14 180 0.0 0.0 0.05 0.20 0.00 86 5004.3
20260505151152 14 180 0.0 0.0 0.05 0.20 0.00 85 5004.2
20260505150652 14 180 0.0 0.0 0.05 0.20 0.00 84 5004.6
20260505150152 14 180 0.0 0.0 0.05 0.20 0.00 84 5004.6
20260505140652 14 202 0.0 0.0 0.05 0.15 0.00 83 5004.9
20260505140152 13 202 0.0 0.0 0.05 0.15 0.00 83 5004.9
20260505130152 13 180 0.0 0.0 0.05 0.10 0.00 83 5005.3
20260505124652 13 180 0.0 0.0 0.10 0.10 0.00 83 5005.4
20260505124152 13 45 0.0 0.0 0.10 0.10 0.00 83 5005.4
20260505123652 13 180 0.0 0.0 0.10 0.10 0.00 83 5005.5
20260505123152 13 202 0.0 0.0 0.10 0.10 0.00 83 5005.4